Location: ????
(30.2663°N, 31.2484°E)
Time: 16:44:46
(UTC+00:00)

CZ-2C R/B - Pass Details

Date: 31 March 2023
Orbit: 784 x 869 km, 98.3° (Epoch: 04 June)

Event Time Altitude Azimuth Distance (km) Brightness Sun altitude
Exits shadow 00:40:20 22° 98° (E) 1,796 4.7 -38.5°
Maximum altitude 00:42:03 26° 70° (ENE) 1,641 4.6 -38.2°
Drops below altitude 10° 00:46:32 10° 16° (NNE) 2,491 5.6 -37.4°
Sets 00:49:15 0° 4° (N) 3,419 6.3 -36.9°
